| time (UTC) | temp F | wind direction | speed MPH | gust MPH | rain 1hr in | rain 24hr in | rain mn in | humidity % | barometer mb |
| 20260831092849 | 66 | 94 | 0.0 | 0.0 | 0.00 | 0.00 | 0.00 | 60 | 1012.5 |
| 20260831092319 | 66 | 94 | 0.0 | 0.0 | 0.00 | 0.00 | 0.00 | 59 | 1012.6 |
| 20260831091830 | 66 | 94 | 0.0 | 0.0 | 0.00 | 0.00 | 0.00 | 58 | 1012.5 |
| 20260831091321 | 66 | 94 | 0.0 | 0.0 | 0.00 | 0.00 | 0.00 | 57 | 1012.5 |
| 20260831090852 | 66 | 94 | 0.0 | 0.0 | 0.00 | 0.00 | 0.00 | 57 | 1012.5 |
| 20260831090323 | 66 | 94 | 0.0 | 0.0 | 0.00 | 0.00 | 0.00 | 55 | 1012.5 |
| 20260831085813 | 66 | 94 | 0.0 | 0.0 | 0.00 | 0.00 | 0.00 | 54 | 1012.5 |
| 20260831085325 | 67 | 94 | 0.0 | 0.0 | 0.00 | 0.00 | 0.00 | 54 | 1012.6 |
| 20260831084836 | 67 | 94 | 0.0 | 0.0 | 0.00 | 0.00 | 0.00 | 53 | 1012.7 |
| 20260831084326 | 67 | 94 | 0.0 | 0.0 | 0.00 | 0.00 | 0.00 | 53 | 1012.7 |
| 20260831083821 | 67 | 94 | 0.0 | 0.0 | 0.00 | 0.00 | 0.00 | 54 | 1012.7 |
| 20260831083333 | 67 | 94 | 0.0 | 0.0 | 0.00 | 0.00 | 0.00 | 55 | 1012.8 |
| 20260831082823 | 67 | 94 | 0.0 | 0.0 | 0.00 | 0.00 | 0.00 | 57 | 1012.8 |
| 20260831082314 | 68 | 94 | 0.0 | 0.0 | 0.00 | 0.00 | 0.00 | 59 | 1012.9 |
| 20260831081846 | 68 | 94 | 0.0 | 0.0 | 0.00 | 0.00 | 0.00 | 59 | 1013.0 |
| 20260831081317 | 68 | 94 | 0.0 | 0.0 | 0.00 | 0.00 | 0.00 | 59 | 1013.0 |
| 20260831080829 | 68 | 94 | 0.0 | 0.0 | 0.00 | 0.00 | 0.00 | 60 | 1013.1 |
| 20260831080320 | 68 | 94 | 0.0 | 0.0 | 0.00 | 0.00 | 0.00 | 59 | 1013.1 |
| 20260831075812 | 68 | 94 | 0.0 | 0.0 | 0.00 | 0.00 | 0.00 | 59 | 1013.1 |
| 20260831075327 | 69 | 94 | 0.0 | 0.0 | 0.00 | 0.00 | 0.00 | 59 | 1013.1 |
| 20260831074819 | 69 | 94 | 0.0 | 0.0 | 0.00 | 0.00 | 0.00 | 58 | 1013.1 |
| 20260831074351 | 69 | 94 | 0.0 | 0.0 | 0.00 | 0.00 | 0.00 | 58 | 1013.0 |
| 20260831073820 | 69 | 94 | 0.0 | 0.0 | 0.00 | 0.00 | 0.00 | 58 | 1013.0 |
| 20260831073312 | 69 | 94 | 0.0 | 0.0 | 0.00 | 0.00 | 0.00 | 57 | 1013.1 |
| 20260831072823 | 69 | 94 | 0.0 | 0.0 | 0.00 | 0.00 | 0.00 | 57 | 1013.0 |
| 20260831072315 | 69 | 94 | 0.0 | 0.0 | 0.00 | 0.00 | 0.00 | 57 | 1013.0 |
| 20260831071826 | 69 | 94 | 0.0 | 0.0 | 0.00 | 0.00 | 0.00 | 56 | 1013.0 |
| 20260831071317 | 70 | 94 | 0.0 | 0.0 | 0.00 | 0.00 | 0.00 | 56 | 1013.0 |
| 20260831070811 | 70 | 94 | 0.0 | 0.0 | 0.00 | 0.00 | 0.00 | 56 | 1013.1 |
| 20260831070323 | 70 | 94 | 0.0 | 0.0 | 0.00 | 0.00 | 0.00 | 57 | 1013.0 |
| 20260831065815 | 70 | 94 | 0.0 | 0.0 | 0.00 | 0.00 | 0.00 | 58 | 1013.0 |
| 20260831065326 | 70 | 94 | 0.0 | 0.0 | 0.00 | 0.00 | 0.00 | 58 | 1013.0 |
| 20260831064816 | 71 | 94 | 0.0 | 0.0 | 0.00 | 0.00 | 0.00 | 58 | 1013.0 |
| 20260831064328 | 71 | 94 | 0.0 | 0.0 | 0.00 | 0.00 | 0.00 | 59 | 1013.0 |
| 20260831063819 | 71 | 94 | 0.0 | 0.0 | 0.00 | 0.00 | 0.00 | 59 | 1013.0 |
| 20260831063330 | 71 | 94 | 0.0 | 0.0 | 0.00 | 0.00 | 0.00 | 60 | 1012.9 |
| 20260831062822 | 71 | 94 | 0.0 | 0.0 | 0.00 | 0.00 | 0.00 | 62 | 1013.0 |
| 20260831062317 | 72 | 94 | 0.0 | 0.0 | 0.00 | 0.00 | 0.00 | 65 | 1012.9 |
| 20260831061827 | 72 | 94 | 0.0 | 0.0 | 0.00 | 0.00 | 0.00 | 67 | 1012.9 |
| 20260831061318 | 72 | 314 | 0.0 | 0.0 | 0.00 | 0.00 | 0.00 | 69 | 1012.8 |
| 20260831060831 | 72 | 314 | 0.0 | 0.0 | 0.00 | 0.00 | 0.00 | 68 | 1012.8 |
| 20260831060321 | 72 | 314 | 0.0 | 0.0 | 0.00 | 0.00 | 0.00 | 67 | 1012.8 |
| 20260831055811 | 73 | 314 | 0.0 | 0.0 | 0.00 | 0.00 | 0.00 | 66 | 1012.8 |
| 20260831055322 | 73 | 314 | 0.0 | 0.0 | 0.00 | 0.00 | 0.00 | 65 | 1012.8 |
| 20260831054833 | 73 | 314 | 0.0 | 0.0 | 0.00 | 0.00 | 0.00 | 65 | 1012.8 |
| 20260831054324 | 74 | 314 | 0.0 | 0.0 | 0.00 | 0.00 | 0.00 | 64 | 1012.8 |
| 20260831053819 | 74 | 314 | 0.0 | 0.0 | 0.00 | 0.00 | 0.00 | 62 | 1012.8 |
| 20260831053352 | 74 | 314 | 0.0 | 0.0 | 0.00 | 0.00 | 0.00 | 62 | 1012.7 |
| 20260831052843 | 74 | 314 | 0.0 | 0.0 | 0.00 | 0.00 | 0.00 | 61 | 1012.7 |
| 20260831052334 | 75 | 314 | 0.0 | 0.0 | 0.00 | 0.00 | 0.00 | 60 | 1012.7 |
| 20260831051825 | 75 | 314 | 0.0 | 0.0 | 0.00 | 0.00 | 0.00 | 59 | 1012.6 |
| 20260831051336 | 76 | 314 | 0.0 | 0.0 | 0.00 | 0.00 | 0.00 | 58 | 1012.6 |
| 20260831050825 | 76 | 314 | 0.0 | 0.0 | 0.00 | 0.00 | 0.00 | 56 | 1012.6 |
| 20260831050317 | 76 | 314 | 0.0 | 1.0 | 0.00 | 0.00 | 0.00 | 56 | 1012.6 |
| 20260831045829 | 76 | 314 | 0.0 | 2.0 | 0.00 | 0.00 | 0.00 | 56 | 1012.5 |
| 20260831045340 | 77 | 314 | 0.0 | 2.0 | 0.00 | 0.00 | 0.00 | 54 | 1012.4 |
| 20260831044851 | 77 | 288 | 0.0 | 0.0 | 0.00 | 0.00 | 0.00 | 53 | 1012.4 |
| 20260831044323 | 78 | 275 | 0.0 | 0.0 | 0.00 | 0.00 | 0.00 | 50 | 1012.3 |
| 20260831043835 | 78 | 275 | 0.0 | 0.0 | 0.00 | 0.00 | 0.00 | 48 | 1012.3 |
| 20260831043345 | 79 | 269 | 0.0 | 2.0 | 0.00 | 0.00 | 0.00 | 45 | 1012.3 |
| 20260831042814 | 79 | 269 | 0.0 | 2.0 | 0.00 | 0.00 | 0.00 | 45 | 1012.3 |
| 20260831042331 | 79 | 276 | 0.0 | 2.0 | 0.00 | 0.00 | 0.00 | 44 | 1012.2 |
| 20260831041821 | 80 | 274 | 1.0 | 3.0 | 0.00 | 0.00 | 0.00 | 44 | 1012.1 |
| 20260831041312 | 80 | 236 | 0.0 | 0.0 | 0.00 | 0.00 | 0.00 | 43 | 1012.1 |
| 20260831040825 | 80 | 280 | 0.0 | 0.0 | 0.00 | 0.00 | 0.00 | 43 | 1012.0 |
| 20260831040335 | 81 | 268 | 0.0 | 0.0 | 0.00 | 0.00 | 0.00 | 42 | 1012.0 |
| 20260831035826 | 81 | 268 | 0.0 | 0.0 | 0.00 | 0.00 | 0.00 | 41 | 1012.0 |
| 20260831035338 | 81 | 272 | 0.0 | 0.0 | 0.00 | 0.00 | 0.00 | 41 | 1011.9 |
| 20260831034829 | 81 | 240 | 0.0 | 4.0 | 0.00 | 0.00 | 0.00 | 40 | 1011.7 |
| 20260831034320 | 82 | 221 | 0.0 | 4.0 | 0.00 | 0.00 | 0.00 | 39 | 1011.7 |
| 20260831033833 | 82 | 226 | 1.0 | 5.0 | 0.00 | 0.00 | 0.00 | 38 | 1011.6 |
| 20260831033328 | 82 | 229 | 1.0 | 5.0 | 0.00 | 0.00 | 0.00 | 38 | 1011.6 |
| 20260831032820 | 82 | 217 | 1.0 | 4.0 | 0.00 | 0.00 | 0.00 | 37 | 1011.6 |
| 20260831032331 | 82 | 222 | 3.0 | 4.0 | 0.00 | 0.00 | 0.00 | 37 | 1011.5 |
| 20260831031821 | 82 | 219 | 3.0 | 4.0 | 0.00 | 0.00 | 0.00 | 37 | 1011.4 |
| 20260831031332 | 83 | 227 | 2.0 | 6.0 | 0.00 | 0.00 | 0.00 | 37 | 1011.3 |
| 20260831030823 | 83 | 228 | 2.0 | 6.0 | 0.00 | 0.00 | 0.00 | 36 | 1011.3 |
| 20260831030314 | 83 | 221 | 1.0 | 4.0 | 0.00 | 0.00 | 0.00 | 36 | 1011.3 |
| 20260831025826 | 83 | 215 | 2.0 | 4.0 | 0.00 | 0.00 | 0.00 | 35 | 1011.3 |
| 20260831025316 | 83 | 215 | 0.0 | 4.0 | 0.00 | 0.00 | 0.00 | 35 | 1011.3 |
| 20260831024812 | 84 | 214 | 0.0 | 5.0 | 0.00 | 0.00 | 0.00 | 35 | 1011.2 |
| 20260831024324 | 84 | 243 | 1.0 | 5.0 | 0.00 | 0.00 | 0.00 | 35 | 1011.1 |
| 20260831023815 | 84 | 226 | 2.0 | 4.0 | 0.00 | 0.00 | 0.00 | 34 | 1011.2 |
| 20260831023326 | 84 | 263 | 0.0 | 4.0 | 0.00 | 0.00 | 0.00 | 34 | 1011.2 |
| 20260831022818 | 84 | 266 | 0.0 | 4.0 | 0.00 | 0.00 | 0.00 | 34 | 1011.2 |
| 20260831022330 | 85 | 227 | 0.0 | 4.0 | 0.00 | 0.00 | 0.00 | 33 | 1011.1 |
| 20260831021821 | 85 | 232 | 2.0 | 5.0 | 0.00 | 0.00 | 0.00 | 33 | 1011.0 |
| 20260831021312 | 86 | 202 | 2.0 | 5.0 | 0.00 | 0.00 | 0.00 | 33 | 1011.1 |
| 20260831020844 | 86 | 193 | 0.0 | 5.0 | 0.00 | 0.00 | 0.00 | 33 | 1011.0 |
| 20260831020318 | 86 | 209 | 2.0 | 7.0 | 0.00 | 0.00 | 0.00 | 33 | 1010.9 |
| 20260831015849 | 87 | 246 | 2.0 | 7.0 | 0.00 | 0.00 | 0.00 | 33 | 1010.9 |
| 20260831015320 | 87 | 230 | 2.0 | 8.0 | 0.00 | 0.00 | 0.00 | 34 | 1010.8 |
| 20260831014811 | 87 | 231 | 4.0 | 8.0 | 0.00 | 0.00 | 0.00 | 34 | 1010.8 |
| 20260831014342 | 87 | 165 | 2.0 | 10.0 | 0.00 | 0.00 | 0.00 | 34 | 1010.7 |
| 20260831013812 | 87 | 230 | 5.0 | 10.0 | 0.00 | 0.00 | 0.00 | 34 | 1010.7 |
| 20260831013324 | 88 | 235 | 2.0 | 10.0 | 0.00 | 0.00 | 0.00 | 34 | 1010.7 |
| 20260831012817 | 88 | 210 | 6.0 | 10.0 | 0.00 | 0.00 | 0.00 | 33 | 1010.7 |
| 20260831012328 | 89 | 203 | 4.0 | 10.0 | 0.00 | 0.00 | 0.00 | 32 | 1010.9 |
| 20260831011819 | 89 | 237 | 3.0 | 13.0 | 0.00 | 0.00 | 0.00 | 32 | 1010.9 |
| 20260831011315 | 90 | 228 | 6.0 | 13.0 | 0.00 | 0.00 | 0.00 | 31 | 1011.0 |
| 20260831010828 | 90 | 212 | 5.0 | 12.0 | 0.00 | 0.00 | 0.00 | 30 | 1010.9 |
| 20260831010320 | 91 | 231 | 3.0 | 10.0 | 0.00 | 0.00 | 0.00 | 31 | 1010.9 |
| 20260831005812 | 91 | 217 | 4.0 | 10.0 | 0.00 | 0.00 | 0.00 | 30 | 1010.8 |
| 20260831005324 | 91 | 220 | 4.0 | 10.0 | 0.00 | 0.00 | 0.00 | 30 | 1010.7 |
| 20260831004815 | 91 | 171 | 4.0 | 11.0 | 0.00 | 0.00 | 0.00 | 31 | 1010.7 |
| 20260831004326 | 91 | 238 | 5.0 | 12.0 | 0.00 | 0.00 | 0.00 | 31 | 1010.7 |
| 20260831003817 | 91 | 226 | 6.0 | 12.0 | 0.00 | 0.00 | 0.00 | 30 | 1010.6 |
| 20260831003313 | 92 | 217 | 6.0 | 13.0 | 0.00 | 0.00 | 0.00 | 30 | 1010.6 |
| 20260831002844 | 92 | 259 | 8.0 | 13.0 | 0.00 | 0.00 | 0.00 | 30 | 1010.7 |
| 20260831002314 | 93 | 286 | 4.0 | 13.0 | 0.00 | 0.00 | 0.00 | 29 | 1010.7 |
| 20260831001846 | 92 | 185 | 4.0 | 13.0 | 0.00 | 0.00 | 0.00 | 29 | 1010.7 |
| 20260831001318 | 93 | 241 | 5.0 | 12.0 | 0.00 | 0.00 | 0.00 | 28 | 1010.6 |
| 20260831000850 | 93 | 208 | 5.0 | 12.0 | 0.00 | 0.00 | 0.00 | 28 | 1010.6 |
| 20260831000341 | 94 | 176 | 6.0 | 14.0 | 0.00 | 0.00 | 0.00 | 27 | 1010.5 |
| 20260830235812 | 94 | 183 | 6.0 | 14.0 | 0.00 | 0.00 | 0.00 | 27 | 1010.6 |
| 20260830235344 | 94 | 196 | 4.0 | 14.0 | 0.00 | 0.00 | 0.00 | 27 | 1010.6 |
| 20260830234816 | 94 | 209 | 8.0 | 14.0 | 0.00 | 0.00 | 0.00 | 28 | 1010.5 |
| 20260830234327 | 94 | 205 | 6.0 | 12.0 | 0.00 | 0.00 | 0.00 | 27 | 1010.5 |
| 20260830233839 | 94 | 198 | 6.0 | 13.0 | 0.00 | 0.00 | 0.00 | 28 | 1010.5 |
| 20260830233328 | 94 | 231 | 8.0 | 13.0 | 0.00 | 0.00 | 0.00 | 27 | 1010.5 |
| 20260830232823 | 94 | 211 | 5.0 | 14.0 | 0.00 | 0.00 | 0.00 | 27 | 1010.5 |
| 20260830232314 | 94 | 231 | 9.0 | 14.0 | 0.00 | 0.00 | 0.00 | 27 | 1010.4 |
| 20260830231827 | 95 | 190 | 8.0 | 14.0 | 0.00 | 0.00 | 0.00 | 28 | 1010.4 |
| 20260830231317 | 95 | 199 | 7.0 | 14.0 | 0.00 | 0.00 | 0.00 | 27 | 1010.4 |
| 20260830230828 | 95 | 214 | 4.0 | 14.0 | 0.00 | 0.00 | 0.00 | 29 | 1010.4 |
| 20260830230318 | 95 | 179 | 5.0 | 16.0 | 0.00 | 0.00 | 0.00 | 28 | 1010.4 |
| 20260830225811 | 95 | 218 | 7.0 | 16.0 | 0.00 | 0.00 | 0.00 | 28 | 1010.4 |
| 20260830225323 | 95 | 202 | 8.0 | 12.0 | 0.00 | 0.00 | 0.00 | 28 | 1010.5 |
| 20260830224814 | 96 | 210 | 4.0 | 11.0 | 0.00 | 0.00 | 0.00 | 28 | 1010.5 |
| 20260830224346 | 96 | 231 | 3.0 | 14.0 | 0.00 | 0.00 | 0.00 | 28 | 1010.4 |
| 20260830223821 | 96 | 206 | 6.0 | 12.0 | 0.00 | 0.00 | 0.00 | 26 | 1010.5 |
| 20260830223313 | 95 | 206 | 4.0 | 10.0 | 0.00 | 0.00 | 0.00 | 26 | 1010.5 |
| 20260830222824 | 95 | 211 | 4.0 | 11.0 | 0.00 | 0.00 | 0.00 | 27 | 1010.6 |
| 20260830222315 | 96 | 224 | 5.0 | 11.0 | 0.00 | 0.00 | 0.00 | 27 | 1010.7 |
| 20260830221825 | 95 | 264 | 6.0 | 12.0 | 0.00 | 0.00 | 0.00 | 27 | 1010.7 |
| 20260830221315 | 96 | 226 | 5.0 | 13.0 | 0.00 | 0.00 | 0.00 | 27 | 1010.7 |
| 20260830220846 | 96 | 250 | 3.0 | 13.0 | 0.00 | 0.00 | 0.00 | 27 | 1011.0 |
| 20260830220318 | 96 | 253 | 4.0 | 13.0 | 0.00 | 0.00 | 0.00 | 26 | 1011.0 |
| 20260830215829 | 96 | 207 | 4.0 | 9.0 | 0.00 | 0.00 | 0.00 | 26 | 1011.0 |
| 20260830215320 | 96 | 236 | 3.0 | 8.0 | 0.00 | 0.00 | 0.00 | 27 | 1011.1 |
| 20260830214815 | 95 | 262 | 4.0 | 8.0 | 0.00 | 0.00 | 0.00 | 27 | 1011.2 |
| 20260830214327 | 96 | 260 | 2.0 | 11.0 | 0.00 | 0.00 | 0.00 | 27 | 1011.2 |
| 20260830213818 | 95 | 218 | 4.0 | 12.0 | 0.00 | 0.00 | 0.00 | 27 | 1011.3 |
| 20260830213329 | 95 | 243 | 6.0 | 12.0 | 0.00 | 0.00 | 0.00 | 26 | 1011.4 |
| 20260830212822 | 96 | 215 | 6.0 | 12.0 | 0.00 | 0.00 | 0.00 | 26 | 1011.6 |
| 20260830212312 | 96 | 219 | 5.0 | 12.0 | 0.00 | 0.00 | 0.00 | 26 | 1011.6 |
| 20260830211824 | 96 | 273 | 4.0 | 10.0 | 0.00 | 0.00 | 0.00 | 25 | 1011.6 |
| 20260830211315 | 96 | 219 | 5.0 | 8.0 | 0.00 | 0.00 | 0.00 | 26 | 1011.7 |
| 20260830210848 | 96 | 257 | 2.0 | 10.0 | 0.00 | 0.00 | 0.00 | 26 | 1011.7 |
| 20260830210318 | 96 | 232 | 5.0 | 10.0 | 0.00 | 0.00 | 0.00 | 26 | 1011.8 |
| 20260830205812 | 95 | 253 | 3.0 | 9.0 | 0.00 | 0.00 | 0.00 | 27 | 1011.8 |
| 20260830205323 | 95 | 314 | 5.0 | 13.0 | 0.00 | 0.00 | 0.00 | 27 | 1011.9 |
| 20260830204814 | 95 | 221 | 5.0 | 13.0 | 0.00 | 0.00 | 0.00 | 28 | 1011.9 |
| 20260830204326 | 95 | 309 | 4.0 | 9.0 | 0.00 | 0.00 | 0.00 | 28 | 1011.9 |
| 20260830203818 | 95 | 248 | 5.0 | 10.0 | 0.00 | 0.00 | 0.00 | 29 | 1012.0 |
| 20260830203329 | 95 | 273 | 5.0 | 11.0 | 0.00 | 0.00 | 0.00 | 30 | 1012.0 |
| 20260830202820 | 95 | 284 | 4.0 | 11.0 | 0.00 | 0.00 | 0.00 | 31 | 1012.1 |
| 20260830202312 | 95 | 245 | 4.0 | 11.0 | 0.00 | 0.00 | 0.00 | 32 | 1012.0 |
| 20260830201824 | 95 | 259 | 5.0 | 11.0 | 0.00 | 0.00 | 0.00 | 32 | 1012.2 |
| 20260830200818 | 94 | 203 | 4.0 | 13.0 | 0.00 | 0.00 | 0.00 | 32 | 1012.2 |
| 20260830200330 | 94 | 208 | 8.0 | 13.0 | 0.00 | 0.00 | 0.00 | 32 | 1012.2 |
| 20260830195821 | 95 | 277 | 4.0 | 8.0 | 0.00 | 0.00 | 0.00 | 32 | 1012.3 |
| 20260830195314 | 94 | 243 | 4.0 | 12.0 | 0.00 | 0.00 | 0.00 | 32 | 1012.2 |
| 20260830194824 | 95 | 218 | 5.0 | 12.0 | 0.00 | 0.00 | 0.00 | 32 | 1012.3 |
| 20260830194315 | 94 | 153 | 4.0 | 10.0 | 0.00 | 0.00 | 0.00 | 30 | 1012.1 |
| 20260830193826 | 95 | 262 | 3.0 | 8.0 | 0.00 | 0.00 | 0.00 | 29 | 1012.3 |
| 20260830193338 | 94 | 292 | 2.0 | 9.0 | 0.00 | 0.00 | 0.00 | 30 | 1012.3 |
| 20260830192828 | 94 | 206 | 4.0 | 9.0 | 0.00 | 0.00 | 0.00 | 30 | 1012.3 |
| 20260830192318 | 94 | 216 | 3.0 | 8.0 | 0.00 | 0.00 | 0.00 | 30 | 1012.3 |
| 20260830191851 | 94 | 205 | 3.0 | 6.0 | 0.00 | 0.00 | 0.00 | 30 | 1012.4 |
| 20260830191325 | 94 | 252 | 2.0 | 9.0 | 0.00 | 0.00 | 0.00 | 29 | 1012.3 |
| 20260830190837 | 94 | 203 | 4.0 | 9.0 | 0.00 | 0.00 | 0.00 | 30 | 1012.4 |
| 20260830190327 | 93 | 266 | 2.0 | 6.0 | 0.00 | 0.00 | 0.00 | 30 | 1012.4 |
| 20260830185818 | 93 | 269 | 2.0 | 6.0 | 0.00 | 0.00 | 0.00 | 32 | 1012.4 |
| 20260830185330 | 93 | 288 | 3.0 | 6.0 | 0.00 | 0.00 | 0.00 | 31 | 1012.6 |
| 20260830184820 | 92 | 321 | 2.0 | 5.0 | 0.00 | 0.00 | 0.00 | 32 | 1012.6 |
| 20260830184352 | 92 | 309 | 2.0 | 6.0 | 0.00 | 0.00 | 0.00 | 33 | 1012.7 |
| 20260830183822 | 92 | 237 | 2.0 | 8.0 | 0.00 | 0.00 | 0.00 | 32 | 1012.6 |
| 20260830183334 | 91 | 269 | 2.0 | 8.0 | 0.00 | 0.00 | 0.00 | 32 | 1012.6 |
| 20260830182844 | 91 | 207 | 3.0 | 8.0 | 0.00 | 0.00 | 0.00 | 31 | 1012.6 |
| 20260830182315 | 91 | 264 | 2.0 | 6.0 | 0.00 | 0.00 | 0.00 | 32 | 1012.7 |
| 20260830181845 | 91 | 340 | 2.0 | 6.0 | 0.00 | 0.00 | 0.00 | 32 | 1012.7 |
| 20260830181320 | 90 | 160 | 2.0 | 7.0 | 0.00 | 0.00 | 0.00 | 32 | 1012.8 |
| 20260830180831 | 90 | 236 | 1.0 | 6.0 | 0.00 | 0.00 | 0.00 | 32 | 1012.8 |
| 20260830180323 | 90 | 240 | 3.0 | 6.0 | 0.00 | 0.00 | 0.00 | 33 | 1012.8 |
| 20260830175815 | 90 | 205 | 3.0 | 5.0 | 0.00 | 0.00 | 0.00 | 33 | 1012.7 |
| 20260830175326 | 89 | 264 | 2.0 | 4.0 | 0.00 | 0.00 | 0.00 | 34 | 1012.7 |
| 20260830174817 | 89 | 305 | 1.0 | 5.0 | 0.00 | 0.00 | 0.00 | 36 | 1012.8 |
| 20260830174330 | 88 | 338 | 2.0 | 6.0 | 0.00 | 0.00 | 0.00 | 37 | 1012.8 |
| 20260830173840 | 87 | 51 | 2.0 | 7.0 | 0.00 | 0.00 | 0.00 | 37 | 1012.8 |
| 20260830173350 | 86 | 32 | 3.0 | 7.0 | 0.00 | 0.00 | 0.00 | 38 | 1012.9 |
| 20260830172826 | 86 | 311 | 2.0 | 6.0 | 0.00 | 0.00 | 0.00 | 38 | 1012.9 |
| 20260830172317 | 86 | 316 | 3.0 | 7.0 | 0.00 | 0.00 | 0.00 | 38 | 1012.9 |
| 20260830171829 | 86 | 308 | 4.0 | 8.0 | 0.00 | 0.00 | 0.00 | 38 | 1012.8 |
| 20260830171320 | 86 | 312 | 4.0 | 8.0 | 0.00 | 0.00 | 0.00 | 39 | 1012.9 |
| 20260830170812 | 86 | 270 | 2.0 | 5.0 | 0.00 | 0.00 | 0.00 | 39 | 1012.9 |
| 20260830170323 | 85 | 272 | 2.0 | 5.0 | 0.00 | 0.00 | 0.00 | 41 | 1012.9 |
| 20260830165813 | 84 | 308 | 4.0 | 5.0 | 0.00 | 0.00 | 0.00 | 41 | 1012.9 |
| 20260830165325 | 84 | 307 | 2.0 | 5.0 | 0.00 | 0.00 | 0.00 | 41 | 1012.9 |
| 20260830164821 | 84 | 322 | 2.0 | 5.0 | 0.00 | 0.00 | 0.00 | 42 | 1012.8 |
| 20260830164312 | 83 | 304 | 3.0 | 5.0 | 0.00 | 0.00 | 0.00 | 44 | 1013.0 |
| 20260830163823 | 83 | 304 | 1.0 | 4.0 | 0.00 | 0.00 | 0.00 | 45 | 1013.0 |
| 20260830163314 | 83 | 304 | 1.0 | 4.0 | 0.00 | 0.00 | 0.00 | 45 | 1013.0 |
| 20260830162826 | 82 | 277 | 1.0 | 4.0 | 0.00 | 0.00 | 0.00 | 46 | 1013.0 |
| 20260830162318 | 82 | 319 | 2.0 | 4.0 | 0.00 | 0.00 | 0.00 | 45 | 1013.0 |
| 20260830161829 | 82 | 276 | 0.0 | 4.0 | 0.00 | 0.00 | 0.00 | 45 | 1012.9 |
| 20260830161321 | 82 | 274 | 0.0 | 2.0 | 0.00 | 0.00 | 0.00 | 45 | 1013.0 |
| 20260830160817 | 81 | 11 | 0.0 | 3.0 | 0.00 | 0.00 | 0.00 | 46 | 1012.9 |
| 20260830160329 | 81 | 307 | 1.0 | 3.0 | 0.00 | 0.00 | 0.00 | 46 | 1012.8 |
| 20260830155821 | 81 | 316 | 0.0 | 2.0 | 0.00 | 0.00 | 0.00 | 48 | 1012.9 |
| 20260830155313 | 80 | 310 | 0.0 | 2.0 | 0.00 | 0.00 | 0.00 | 48 | 1012.9 |
| 20260830154825 | 80 | 294 | 0.0 | 1.0 | 0.00 | 0.00 | 0.00 | 49 | 1012.9 |
| 20260830154315 | 80 | 11 | 0.0 | 1.0 | 0.00 | 0.00 | 0.00 | 51 | 1012.9 |
| 20260830153826 | 79 | 290 | 0.0 | 1.0 | 0.00 | 0.00 | 0.00 | 53 | 1012.8 |
| 20260830153317 | 79 | 347 | 0.0 | 1.0 | 0.00 | 0.00 | 0.00 | 53 | 1012.8 |
| 20260830152828 | 79 | 306 | 0.0 | 2.0 | 0.00 | 0.00 | 0.00 | 55 | 1012.8 |
| 20260830152340 | 80 | 256 | 0.0 | 0.0 | 0.00 | 0.00 | 0.00 | 54 | 1012.8 |
| 20260830151813 | 80 | 256 | 0.0 | 0.0 | 0.00 | 0.00 | 0.00 | 52 | 1012.9 |
| 20260830151326 | 81 | 153 | 0.0 | 0.0 | 0.00 | 0.00 | 0.00 | 52 | 1012.9 |
| 20260830150817 | 80 | 153 | 0.0 | 0.0 | 0.00 | 0.00 | 0.00 | 55 | 1012.9 |
| 20260830150329 | 79 | 153 | 0.0 | 0.0 | 0.00 | 0.00 | 0.00 | 56 | 1012.8 |
| 20260830145820 | 78 | 153 | 0.0 | 0.0 | 0.00 | 0.00 | 0.00 | 58 | 1012.8 |
| 20260830145312 | 77 | 153 | 0.0 | 0.0 | 0.00 | 0.00 | 0.00 | 57 | 1012.9 |
| 20260830144843 | 76 | 153 | 0.0 | 0.0 | 0.00 | 0.00 | 0.00 | 58 | 1012.8 |
| 20260830144314 | 76 | 153 | 0.0 | 1.0 | 0.00 | 0.00 | 0.00 | 57 | 1012.8 |
| 20260830143824 | 75 | 75 | 0.0 | 1.0 | 0.00 | 0.00 | 0.00 | 58 | 1012.8 |
| 20260830143320 | 74 | 75 | 0.0 | 0.0 | 0.00 | 0.00 | 0.00 | 60 | 1012.8 |
| 20260830142831 | 73 | 75 | 0.0 | 0.0 | 0.00 | 0.00 | 0.00 | 62 | 1012.9 |
| 20260830142321 | 72 | 75 | 0.0 | 2.0 | 0.00 | 0.00 | 0.00 | 65 | 1012.8 |
| 20260830141831 | 70 | 75 | 0.0 | 2.0 | 0.00 | 0.00 | 0.00 | 67 | 1013.0 |
| 20260830141323 | 69 | 113 | 0.0 | 1.0 | 0.00 | 0.00 | 0.00 | 68 | 1013.0 |
| 20260830140813 | 68 | 113 | 0.0 | 0.0 | 0.00 | 0.00 | 0.00 | 69 | 1012.9 |
| 20260830140325 | 68 | 110 | 0.0 | 0.0 | 0.00 | 0.00 | 0.00 | 69 | 1012.8 |
| 20260830135816 | 68 | 110 | 0.0 | 0.0 | 0.00 | 0.00 | 0.00 | 69 | 1012.9 |
| 20260830135327 | 67 | 110 | 0.0 | 0.0 | 0.00 | 0.00 | 0.00 | 69 | 1012.8 |
| 20260830134822 | 67 | 110 | 0.0 | 0.0 | 0.00 | 0.00 | 0.00 | 69 | 1012.9 |
| 20260830134334 | 67 | 110 | 0.0 | 0.0 | 0.00 | 0.00 | 0.00 | 69 | 1012.9 |
| 20260830133824 | 68 | 110 | 0.0 | 0.0 | 0.00 | 0.00 | 0.00 | 69 | 1013.0 |
| 20260830133316 | 68 | 110 | 0.0 | 0.0 | 0.00 | 0.00 | 0.00 | 69 | 1012.9 |
| 20260830132847 | 68 | 110 | 0.0 | 0.0 | 0.00 | 0.00 | 0.00 | 68 | 1012.7 |
| 20260830132338 | 68 | 110 | 0.0 | 0.0 | 0.00 | 0.00 | 0.00 | 68 | 1012.6 |
| 20260830131848 | 68 | 110 | 0.0 | 0.0 | 0.00 | 0.00 | 0.00 | 68 | 1012.6 |
| 20260830131319 | 68 | 146 | 0.0 | 0.0 | 0.00 | 0.00 | 0.00 | 67 | 1012.6 |
| 20260830130830 | 68 | 146 | 0.0 | 0.0 | 0.00 | 0.00 | 0.00 | 67 | 1012.5 |
| 20260830130341 | 68 | 146 | 0.0 | 0.0 | 0.00 | 0.00 | 0.00 | 66 | 1012.4 |
| 20260830125811 | 69 | 146 | 0.0 | 0.0 | 0.00 | 0.00 | 0.00 | 65 | 1012.4 |
| 20260830125323 | 69 | 146 | 0.0 | 0.0 | 0.00 | 0.00 | 0.00 | 64 | 1012.4 |
| 20260830124818 | 69 | 146 | 0.0 | 0.0 | 0.00 | 0.00 | 0.00 | 63 | 1012.3 |
| 20260830124352 | 69 | 146 | 0.0 | 0.0 | 0.00 | 0.00 | 0.00 | 62 | 1012.2 |
| 20260830123842 | 69 | 146 | 0.0 | 0.0 | 0.00 | 0.00 | 0.00 | 62 | 1012.3 |
| 20260830123312 | 69 | 146 | 0.0 | 0.0 | 0.00 | 0.00 | 0.00 | 61 | 1012.2 |
| 20260830122823 | 69 | 146 | 0.0 | 0.0 | 0.00 | 0.00 | 0.00 | 61 | 1012.1 |
| 20260830122313 | 69 | 146 | 0.0 | 0.0 | 0.00 | 0.00 | 0.00 | 61 | 1012.1 |
| 20260830121824 | 69 | 146 | 0.0 | 0.0 | 0.00 | 0.00 | 0.00 | 61 | 1012.0 |
| 20260830121336 | 69 | 146 | 0.0 | 0.0 | 0.00 | 0.00 | 0.00 | 61 | 1011.9 |
| 20260830120826 | 69 | 146 | 0.0 | 0.0 | 0.00 | 0.00 | 0.00 | 60 | 1012.0 |
| 20260830120318 | 69 | 146 | 0.0 | 0.0 | 0.00 | 0.00 | 0.00 | 60 | 1012.0 |
| 20260830115812 | 69 | 146 | 0.0 | 0.0 | 0.00 | 0.00 | 0.00 | 60 | 1011.9 |
| 20260830115323 | 69 | 146 | 0.0 | 0.0 | 0.00 | 0.00 | 0.00 | 60 | 1011.8 |
| 20260830114815 | 69 | 146 | 0.0 | 0.0 | 0.00 | 0.00 | 0.00 | 59 | 1011.9 |
| 20260830114326 | 70 | 146 | 0.0 | 0.0 | 0.00 | 0.00 | 0.00 | 58 | 1011.8 |
| 20260830113818 | 70 | 146 | 0.0 | 0.0 | 0.00 | 0.00 | 0.00 | 58 | 1011.9 |
| 20260830113349 | 70 | 146 | 0.0 | 0.0 | 0.00 | 0.00 | 0.00 | 56 | 1011.9 |
| 20260830112820 | 71 | 146 | 0.0 | 0.0 | 0.00 | 0.00 | 0.00 | 56 | 1011.8 |
| 20260830112331 | 71 | 146 | 0.0 | 0.0 | 0.00 | 0.00 | 0.00 | 55 | 1011.7 |
| 20260830111821 | 71 | 146 | 0.0 | 0.0 | 0.00 | 0.00 | 0.00 | 55 | 1011.8 |
| 20260830111316 | 71 | 146 | 0.0 | 0.0 | 0.00 | 0.00 | 0.00 | 56 | 1011.8 |
| 20260830110848 | 71 | 146 | 0.0 | 0.0 | 0.00 | 0.00 | 0.00 | 56 | 1011.8 |
| 20260830110317 | 71 | 110 | 0.0 | 0.0 | 0.00 | 0.00 | 0.00 | 57 | 1011.7 |
| 20260830105830 | 71 | 110 | 0.0 | 0.0 | 0.00 | 0.00 | 0.00 | 58 | 1011.7 |
| 20260830105342 | 71 | 110 | 0.0 | 0.0 | 0.00 | 0.00 | 0.00 | 58 | 1011.7 |
| 20260830104811 | 71 | 110 | 0.0 | 0.0 | 0.00 | 0.00 | 0.00 | 58 | 1011.7 |
| 20260830104322 | 71 | 110 | 0.0 | 0.0 | 0.00 | 0.00 | 0.00 | 57 | 1011.7 |
| 20260830103813 | 71 | 110 | 0.0 | 0.0 | 0.00 | 0.00 | 0.00 | 58 | 1011.7 |
| 20260830103324 | 71 | 110 | 0.0 | 0.0 | 0.00 | 0.00 | 0.00 | 57 | 1011.7 |
| 20260830102820 | 71 | 110 | 0.0 | 0.0 | 0.00 | 0.00 | 0.00 | 57 | 1011.7 |
| 20260830102311 | 71 | 110 | 0.0 | 0.0 | 0.00 | 0.00 | 0.00 | 57 | 1011.6 |
| 20260830101822 | 72 | 110 | 0.0 | 0.0 | 0.00 | 0.00 | 0.00 | 57 | 1011.6 |
| 20260830101314 | 72 | 110 | 0.0 | 0.0 | 0.00 | 0.00 | 0.00 | 58 | 1011.5 |
| 20260830100826 | 72 | 110 | 0.0 | 0.0 | 0.00 | 0.00 | 0.00 | 58 | 1011.6 |
| 20260830100317 | 72 | 110 | 0.0 | 0.0 | 0.00 | 0.00 | 0.00 | 58 | 1011.7 |
| 20260830095828 | 71 | 110 | 0.0 | 0.0 | 0.00 | 0.00 | 0.00 | 58 | 1011.6 |
| 20260830095319 | 72 | 110 | 0.0 | 0.0 | 0.00 | 0.00 | 0.00 | 58 | 1011.7 |
| 20260830094829 | 71 | 110 | 0.0 | 0.0 | 0.00 | 0.00 | 0.00 | 59 | 1011.7 |
| 20260830094324 | 71 | 110 | 0.0 | 0.0 | 0.00 | 0.00 | 0.00 | 59 | 1011.7 |
| 20260830093837 | 71 | 110 | 0.0 | 0.0 | 0.00 | 0.00 | 0.00 | 58 | 1011.7 |
| 20260830093327 | 72 | 110 | 0.0 | 0.0 | 0.00 | 0.00 | 0.00 | 58 | 1011.8 |